Dewpoint
22 18 16 16 14 11 8 6 6 11 18 15 14 14 15 16 12 12 11 8 7 10 12 15 20 23 25 24 24 26 28 29 29 27 25 25 27 27 28 30 30 29 29 31
18 16 15 12 12 11 9 7 7 13 15 12 10 12 14 16 15 13 13 10 7 8 11 15 18 21 24 21 23 26 28 29 29 29 29 28 28 30 30 30 30 30 29 31
15 17 13 13 13 10 9 8 6 5 9 12 13 15 15 15 17 15 14 13 10 8 9 12 16 18 24 22 23 25 28 29 28 29 28 29 29 30 29 30 30 31 30 31
15 15 14 14 12 10 9 8 7 9 11 8 13 5 12 13 14 16 14 13 12 10 10 11 15 17 23 23 26 27 28 29 28 29 28 28 29 29 30 30 31 31 30 31
16 12 13 13 12 9 10 11 11 14 12 12 14 10 11 11 11 11 13 13 13 11 10 11 15 17 24 23 25 27 29 30 30 31 31 30 30 30 30 31 31 31 31 30
15 13 11 11 9 8 14 13 15 17 15 13 12 7 9 7 7 9 10 11 12 11 10 12 16 18 24 25 27 29 29 29 30 31 31 31 32 32 31 32 31 30 30 30
15 13 10 8 10 12 12 12 13 15 15 7 11 7 4 8 10 8 8 9 11 11 11 13 16 19 24 25 28 28 29 29 29 29 30 31 32 33 33 31 30 31 30 30
8 11 13 8 8 8 10 11 8 8 5 3 11 7 10 11 12 12 11 10 10 12 11 13 17 21 24 25 27 28 27 28 28 28 29 30 31 32 31 31 31 32 31 31
8 12 9 6 4 7 13 12 12 9 10 5 8 8 13 10 8 11 11 10 12 12 11 12 17 20 24 25 25 27 27 29 28 27 29 30 29 30 30 31 31 32 32 32
13 9 12 10 8 10 9 10 11 13 16 9 1 2 1 11 9 8 9 11 13 13 12 12 16 19 23 24 24 26 27 28 28 28 29 28 27 28 29 30 31 31 32 32
16 12 13 13 12 12 9 8 7 12 10 10 5 1 6 8 11 10 11 11 12 14 13 12 15 18 22 24 24 26 26 28 27 27 28 28 28 28 28 29 30 31 31 31
15 14 8 10 12 11 9 8 7 13 20 9 16 13 6 8 10 12 11 9 11 13 13 11 13 17 20 24 23 25 25 27 27 27 27 27 27 27 27 27 28 29 29 29
16 12 8 12 14 14 11 11 8 15 16 16 14 13 9 9 9 11 12 11 9 11 12 10 12 15 19 22 23 24 24 26 27 26 26 27 27 27 26 26 27 27 27 27
19 16 12 11 13 15 14 15 11 10 15 17 14 10 12 14 13 10 10 14 11 9 9 10 11 13 17 21 21 22 22 25 27 26 26 26 27 27 28 27 27 26 26 26
20 17 16 15 13 13 12 12 15 12 10 9 11 12 13 14 14 14 15 12 13 11 10 10 12 13 15 19 21 21 22 24 26 26 26 26 27 28 28 28 27 26 25 25
19 17 17 15 15 14 13 14 14 14 13 12 12 13 15 15 13 11 12 13 12 13 11 11 11 13 14 17 21 22 22 24 26 26 25 25 26 27 28 28 26 24 23 23
21 20 19 16 15 14 14 16 15 15 15 14 12 14 15 17 17 16 16 14 13 13 13 12 12 12 15 17 22 23 23 24 26 26 25 25 26 27 28 28 24 23 23 22
22 20 22 20 19 15 16 16 16 16 17 17 16 17 18 18 18 18 16 16 16 13 14 14 14 15 16 18 22 23 24 24 26 27 25 25 25 26 27 27 24 22 21 23
21 21 31 21 18 17 18 18 16 15 14 16 16 17 18 18 18 18 16 16 14 17 16 14 14 17 17 19 22 25 24 24 26 27 27 25 26 26 27 28 27 24 23 24
21 21 24 24 23 16 17 15 17 17 15 18 18 17 18 18 17 23 11 7 14 16 17 16 14 15 18 20 23 25 25 23 25 27 28 27 27 27 28 29 29 28 27 26
20 21 24 23 24 21 21 16 18 14 17 20 19 19 19 18 18 20 20 18 14 14 18 16 15 16 19 21 24 26 24 24 25 27 28 29 28 28 29 29 30 29 28 27
23 26 26 24 24 21 20 17 16 21 23 21 21 22 22 23 23 22 21 21 18 16 17 17 17 17 19 22 24 26 25 25 25 27 29 30 29 28 28 30 30 29 29 28
22 24 27 27 24 24 21 19 20 21 20 22 23 24 24 24 24 23 23 21 18 15 16 16 18 19 21 22 25 25 27 26 25 27 28 30 29 29 29 29 29 29 29 29
23 24 25 24 25 25 25 23 21 21 22 23 25 25 26 25 24 24 23 21 19 16 14 16 19 21 22 23 26 26 26 27 26 26 27 28 29 29 29 29 29 28 29 29
25 24 23 23 24 24 24 24 23 23 25 25 26 26 27 25 25 26 26 25 22 19 15 16 18 21 23 25 26 27 27 28 27 26 26 26 28 29 30 30 30 30 30 30
26 24 23 21 23 23 22 25 24 26 27 27 28 26 28 30 29 28 28 28 25 21 18 17 18 21 23 25 27 27 29 29 28 26 24 26 28 29 30 31 31 33 33 34
Wind_Speed
2 8 4 6 3 4 5 6 6 2 2 6 12 12 8 13 15 15 14 15 14 13 10 8 8 6 5 3 3 2 3 5 6 6 6 6 6 5 6 7 9 11 11 12
7 6 5 2 2 4 4 7 4 3 2 5 9 13 11 13 17 17 16 16 16 14 12 11 10 8 6 3 3 3 2 3 4 5 6 5 6 5 5 6 8 9 10 10
9 4 3 2 5 7 6 6 4 4 5 11 10 9 9 11 12 14 17 16 16 16 15 13 11 9 6 5 4 2 1 2 3 4 4 4 3 4 4 7 7 9 9 10
2 3 3 4 7 6 9 2 2 4 5 3 3 2 11 13 13 16 17 19 18 17 15 12 11 9 8 6 5 5 4 2 2 3 4 4 5 5 5 6 7 8 8 9
2 2 3 6 2 3 4 3 5 5 7 8 8 5 9 10 12 16 18 19 20 18 17 15 13 12 10 9 8 6 4 4 3 4 3 4 5 5 5 5 8 7 7 7
1 1 1 3 1 0 1 7 8 4 5 6 7 3 9 9 7 8 14 17 19 19 18 16 13 12 11 10 8 7 7 6 5 5 5 4 6 6 6 6 7 7 7 7
5 4 2 1 4 3 3 8 4 5 5 2 3 4 4 9 8 7 12 15 17 18 18 17 16 14 12 12 11 9 9 8 7 7 5 6 6 6 7 7 6 8 8 7
7 5 4 2 2 3 3 4 5 5 3 7 3 6 3 7 7 7 6 9 16 18 18 18 17 15 14 14 13 11 9 9 8 7 6 5 6 6 6 6 7 8 8 9
4 2 2 2 1 1 2 2 3 6 3 5 5 5 5 7 9 10 12 11 16 19 20 19 17 17 15 14 14 13 12 10 8 7 6 7 7 7 7 7 7 8 9 9
2 5 1 1 2 2 3 3 3 4 4 5 5 6 6 12 16 15 16 17 16 19 20 19 18 18 16 15 14 13 12 11 10 8 8 7 7 7 7 7 8 9 10 10
2 3 3 2 7 1 4 4 4 3 3 5 7 1 5 7 12 15 16 17 18 20 21 20 19 18 17 16 15 15 14 13 11 10 9 8 8 7 7 8 9 9 10 11
5 2 6 1 3 1 4 3 5 4 2 3 4 11 0 1 6 8 11 14 17 19 21 20 19 19 18 18 17 16 15 13 12 10 9 8 8 8 8 8 8 9 10 11
6 7 4 4 3 2 5 7 7 3 1 9 6 7 1 3 6 8 11 13 17 19 21 21 20 21 20 19 18 17 15 14 12 11 10 9 9 8 8 8 8 9 10 10
1 4 9 11 7 2 5 9 13 12 7 11 21 27 23 14 13 14 15 16 17 20 22 22 22 22 21 20 20 19 17 15 13 12 11 10 9 8 8 8 8 9 9 10
4 8 11 14 11 8 11 13 14 21 28 19 28 25 27 27 26 23 17 17 18 20 22 24 23 23 22 21 20 19 18 16 15 14 12 11 10 8 8 8 8 8 9 8
6 6 3 14 11 12 15 18 20 25 26 25 29 34 30 18 10 13 16 16 20 22 23 24 24 23 24 23 21 20 19 18 16 15 14 12 10 9 9 8 8 8 8 8
8 7 5 17 1 5 14 26 24 16 14 14 14 17 15 23 19 14 12 14 19 22 22 23 24 24 22 22 21 21 20 18 17 16 15 14 12 12 10 9 9 8 8 7
9 13 5 11 13 15 10 1 4 15 12 15 24 26 23 24 20 15 15 14 16 17 20 21 21 22 22 20 20 20 19 19 18 17 16 14 13 12 11 10 10 9 8 8
8 11 5 8 16 21 24 7 5 6 1 3 9 12 16 12 10 4 7 12 14 12 14 17 19 18 20 21 20 20 20 19 19 18 17 16 14 13 12 12 11 10 9 9
7 7 9 7 6 11 2 4 4 3 9 4 2 8 11 9 7 5 9 7 7 9 8 12 15 19 20 21 21 21 21 21 21 19 18 16 14 14 13 12 11 10 10 10
8 9 17 19 13 13 11 9 6 7 4 2 3 3 5 6 7 15 12 11 6 6 9 9 13 17 19 19 21 22 21 22 19 17 16 16 15 15 13 11 10 10 10 10
14 15 10 11 10 17 11 7 8 2 4 1 4 6 9 12 14 15 13 11 8 5 6 10 13 16 17 19 21 21 22 18 17 17 16 16 16 14 12 12 11 10 10 11
14 14 7 16 13 3 13 9 7 1 2 5 5 7 11 14 12 12 13 10 7 7 8 10 13 14 16 18 21 22 19 18 17 18 17 17 16 15 13 12 11 10 10 10
12 8 7 14 15 20 19 16 14 12 12 10 9 10 8 10 11 10 9 9 9 8 9 11 14 16 17 18 20 20 18 18 18 19 18 17 16 15 13 11 10 10 10 9
12 9 9 18 19 20 19 16 12 8 7 10 14 13 9 8 12 13 12 11 10 10 10 13 16 16 17 18 19 18 18 19 18 18 17 17 15 16 13 13 12 11 11 9
14 17 18 20 15 10 14 4 6 10 14 16 15 12 10 12 16 14 16 13 12 11 12 14 16 17 17 18 19 19 19 19 19 18 17 15 14 13 13 12 10 14 13 9
Wind_Direction
186 264 271 4 347 332 316 302 296 96 127 272 254 259 245 198 213 217 213 214 212 214 201 187 199 206 223 238 247 288 323 354 351 352 358 347 359 359 5 359 353 357 354 353
235 250 50 43 307 289 284 292 310 121 178 255 282 267 246 214 213 216 219 218 217 212 202 200 206 212 217 241 233 260 313 343 347 346 350 337 334 344 329 357 346 351 347 349
289 45 102 276 277 282 254 285 321 307 304 249 277 258 200 216 212 212 223 224 220 214 211 208 203 212 209 223 214 251 272 309 328 342 324 324 295 282 345 347 345 346 347 350
331 84 252 262 281 307 290 77 293 293 297 339 217 329 195 178 210 216 220 219 218 211 211 208 203 211 211 209 194 212 228 259 311 312 306 326 312 321 334 327 333 337 349 347
86 204 253 265 358 337 354 300 278 278 269 297 201 257 127 173 223 216 215 211 211 206 205 206 201 203 205 197 204 208 210 223 237 267 278 294 300 308 317 323 325 332 337 335
66 117 285 354 76 9 353 274 254 253 248 238 138 265 173 185 212 173 191 202 201 204 199 204 201 197 200 196 204 207 217 226 231 236 248 269 287 306 311 321 317 329 324 325
170 180 128 223 254 193 241 280 255 209 217 346 136 256 293 149 152 171 184 193 195 196 197 198 199 201 205 202 203 209 216 227 224 231 239 252 273 291 289 303 311 318 321 326
267 246 187 142 292 334 292 316 307 293 302 329 176 231 162 145 144 159 168 190 190 195 198 199 203 203 204 207 208 212 219 227 231 234 243 251 257 270 284 283 302 305 310 314
281 181 118 47 320 306 120 258 356 295 246 271 229 222 164 176 188 193 201 196 201 197 199 201 202 204 208 208 208 210 216 227 233 234 242 247 252 258 277 285 291 295 305 309
23 266 194 124 243 203 252 343 263 193 305 285 228 276 261 204 219 205 210 210 208 202 200 201 204 204 206 207 207 211 220 224 224 227 237 246 255 265 274 277 283 296 299 307
228 239 130 197 206 199 164 202 216 282 258 296 308 269 19 182 196 204 211 209 204 202 203 203 205 203 203 205 204 207 213 219 224 224 235 241 254 263 275 280 288 294 303 302
180 266 258 300 100 354 293 273 231 244 190 238 281 276 25 139 186 202 200 200 202 202 200 204 205 202 201 205 206 209 213 216 219 224 231 240 255 267 273 280 291 297 299 305
172 203 255 194 186 188 231 214 236 197 213 240 260 265 128 216 226 226 228 202 200 200 201 201 203 205 205 205 206 211 213 216 216 217 224 233 247 258 272 284 293 296 302 305
259 267 253 274 343 103 204 205 212 215 228 254 235 273 284 267 240 239 233 226 206 203 203 204 204 207 208 207 205 204 209 209 210 216 223 231 242 252 265 280 286 291 297 298
229 263 265 269 278 244 259 254 214 211 232 259 271 276 286 294 298 281 245 232 223 209 207 207 207 207 207 208 207 205 205 205 206 212 218 226 234 241 255 265 274 281 287 294
200 258 264 279 270 257 257 261 248 236 252 262 267 278 282 290 322 297 260 240 224 222 214 211 210 210 207 205 206 205 204 204 202 210 218 222 227 234 242 254 263 270 277 282
191 217 251 276 285 280 275 249 238 231 229 241 258 268 319 314 301 290 285 256 235 227 220 213 209 208 208 203 199 204 205 202 204 209 214 216 219 228 234 243 252 257 267 279
215 218 227 273 278 269 267 143 279 233 247 246 264 284 299 305 297 282 276 272 256 233 226 217 209 205 205 202 198 199 199 203 205 210 216 217 219 226 232 239 248 253 259 267
226 209 225 236 251 276 294 250 195 179 333 141 261 294 313 322 303 4 352 246 262 264 230 224 209 203 199 198 195 195 197 201 205 211 216 217 219 225 229 237 245 250 258 265
207 245 229 195 237 258 24 144 162 180 251 141 170 321 331 333 348 22 8 1 325 260 247 214 204 199 199 195 191 195 199 200 206 209 213 215 218 225 229 236 244 252 257 264
185 197 215 226 241 262 280 158 163 246 281 98 305 331 303 296 299 312 319 310 320 290 228 209 203 199 200 191 189 198 203 208 205 203 208 212 215 220 230 239 245 250 257 265
181 180 189 207 223 252 156 132 211 135 120 273 301 312 291 291 303 308 308 302 297 276 226 208 205 205 199 192 193 201 209 204 202 202 204 210 214 217 222 230 240 244 251 263
230 210 203 196 209 184 188 239 230 337 301 299 278 301 308 304 306 311 312 304 287 263 232 213 215 208 206 199 198 206 208 200 195 201 207 212 214 217 221 229 233 240 246 253
214 228 238 244 242 257 253 234 243 258 261 268 282 295 298 292 300 310 317 303 284 252 231 214 211 216 209 204 203 211 201 195 196 203 208 210 215 216 221 225 229 235 239 246
254 185 233 249 260 280 270 250 231 249 256 274 288 288 264 266 285 300 301 299 281 255 228 217 216 219 218 202 206 209 206 191 199 204 207 210 213 216 222 223 222 226 233 240
223 240 237 246 262 291 280 142 189 283 287 287 284 278 272 285 285 292 288 290 280 258 231 219 222 218 216 209 205 202 203 196 195 204 208 207 208 212 217 223 229 217 237 249